Wind_Speed
12 12 12 12 12 13 14 16 17 18 19 19 19 20 20 20 19 19 19 19 20 21 21 20 19 18 17 15 14 13 11 10 8 8 7 6 4 3 4 6 8 9 10 10 11 12 12 11 11 11 12 12 12 12 12 12 11 11 10 9 8 8 7 7 6 5 5 5 4 4 5 5 6 7 8 7 7 6 4 4 4 4 4 4 4 3
12 12 11 11 12 13 15 16 17 19 19 20 20 21 21 21 20 20 21 21 21 22 22 20 19 17 16 15 13 12 10 9 8 8 7 6 4 4 5 7 9 10 10 10 11 11 11 10 10 11 11 11 11 11 11 11 11 10 10 10 9 8 7 6 6 6 5 5 5 6 6 6 7 7 8 7 7 6 4 4 4 4 4 4 4 3
11 11 11 11 12 14 15 15 17 18 19 20 21 21 21 21 21 21 22 22 22 22 22 21 19 18 16 14 12 11 10 9 8 8 7 6 5 5 6 8 9 10 10 10 10 10 10 9 9 9 10 10 10 10 10 10 10 10 10 9 9 8 8 7 7 7 7 7 7 7 7 7 7 7 7 7 7 6 5 4 4 4 4 5 5 4
11 11 11 12 12 12 14 15 17 18 19 20 21 21 21 21 21 22 22 23 23 23 22 21 20 19 18 15 13 11 10 9 9 8 8 7 6 5 6 8 10 10 10 10 9 9 9 9 8 8 9 9 9 9 9 9 9 9 9 9 8 8 8 8 8 8 8 8 8 8 8 8 8 7 8 7 7 6 5 5 5 5 5 5 5 4
10 11 12 12 12 11 13 16 18 18 19 20 20 20 20 20 21 22 22 23 23 23 22 21 21 20 19 17 15 12 11 10 9 8 8 7 6 6 7 9 10 11 10 10 9 9 8 8 8 7 7 7 8 8 8 9 9 9 9 9 8 8 8 9 9 9 9 10 10 10 10 9 9 9 9 8 8 7 6 5 5 5 5 5 5 4
9 11 12 12 12 12 14 16 18 19 19 20 20 20 20 20 21 22 22 22 22 22 21 21 20 19 19 17 15 13 11 10 9 9 8 7 7 7 8 9 10 11 11 10 9 9 8 7 7 6 6 6 6 6 7 7 8 8 8 8 8 9 9 9 10 10 10 10 11 11 11 11 11 10 10 10 9 8 7 5 5 4 4 4 4 4
9 10 12 13 13 14 15 16 18 20 19 20 20 20 20 20 20 21 21 21 21 21 20 19 18 18 17 16 14 12 11 10 9 9 8 7 7 7 8 9 10 11 11 10 9 9 8 7 6 5 5 5 4 4 5 5 6 6 7 7 7 8 8 9 9 9 9 10 10 10 10 10 10 10 10 10 10 9 8 6 5 4 4 3 4 4
9 10 12 13 13 14 15 15 17 19 20 20 20 19 18 19 19 20 20 20 20 19 19 18 17 16 15 14 13 12 11 9 8 8 7 7 7 8 9 10 11 11 11 10 9 8 7 6 6 5 4 4 4 3 4 4 4 4 5 5 6 6 6 7 7 7 7 7 7 7 7 8 8 9 9 10 10 10 9 7 6 4 3 3 3 3
11 11 12 13 14 13 13 13 15 17 19 19 19 19 17 17 18 18 19 19 18 18 17 17 16 15 14 13 13 12 12 11 9 8 8 7 8 9 10 11 12 12 11 10 9 8 7 6 5 5 4 4 4 4 4 4 4 4 4 4 5 5 5 5 5 5 4 4 3 3 3 4 5 6 7 8 9 10 10 9 7 5 4 3 3 2
12 12 11 12 14 14 12 12 14 17 18 18 18 18 18 18 17 17 16 16 17 17 17 16 16 15 15 14 13 13 13 13 13 12 12 11 11 11 11 11 12 11 11 10 8 7 6 6 5 5 5 5 5 5 5 4 4 4 5 5 5 5 5 5 4 4 3 2 2 2 2 2 2 3 4 6 7 9 9 9 8 7 6 4 3 3
11 11 11 11 13 13 13 13 16 19 20 18 17 17 18 18 18 16 14 14 16 17 17 17 16 16 15 15 15 15 15 15 15 15 15 15 15 15 15 14 13 12 11 10 8 8 7 6 5 5 5 5 5 5 5 5 5 5 6 6 5 5 5 4 3 3 2 3 3 3 3 2 2 2 2 3 5 7 8 9 9 8 7 6 5 4
10 10 11 11 12 13 13 14 17 20 20 17 14 13 14 17 18 17 15 14 15 16 17 18 18 17 17 17 16 16 15 15 15 15 16 17 17 17 17 16 15 14 13 11 10 9 8 7 6 6 6 6 6 6 6 6 6 6 6 6 5 4 4 3 3 2 3 3 4 4 4 3 2 1 1 2 3 4 6 7 8 8 8 7 6 5
10 10 10 11 12 12 13 13 15 17 18 16 14 13 14 15 16 16 14 15 15 16 17 18 18 18 18 18 18 17 16 15 16 16 17 17 18 17 17 16 15 14 13 11 10 9 9 8 8 7 7 7 8 8 8 8 7 7 6 5 4 3 3 3 2 2 3 4 4 4 4 4 3 2 2 2 2 3 4 5 6 7 8 7 6 5
9 10 10 10 10 11 12 14 14 15 15 16 15 14 13 15 17 16 14 14 15 16 17 17 17 17 18 19 19 19 18 16 16 17 17 18 18 18 17 16 15 13 12 11 10 10 9 9 9 9 9 9 9 9 9 8 8 7 5 4 3 3 3 3 3 3 3 4 4 5 4 4 3 3 3 3 3 3 3 4 5 6 6 6 5 5
9 10 9 9 9 11 12 14 15 15 16 16 14 13 13 16 18 17 14 13 14 16 16 15 14 14 15 18 19 20 19 17 16 16 17 18 18 17 16 15 14 13 12 11 11 11 10 10 10 11 11 10 10 9 9 8 7 6 4 3 3 3 3 3 3 3 3 4 4 5 4 4 3 3 3 3 3 3 3 3 4 5 5 5 5 4
11 10 9 9 10 11 12 14 15 15 15 15 14 14 14 16 18 18 15 14 15 16 15 12 10 9 11 16 19 20 19 17 16 16 17 18 18 17 16 15 14 13 12 12 11 11 11 11 11 11 11 10 10 9 8 7 6 4 3 3 4 4 4 4 4 3 3 4 4 4 4 4 4 4 3 3 3 3 3 3 4 4 5 5 5 4
11 11 10 10 10 10 12 13 15 16 16 16 16 16 16 17 18 18 16 16 16 16 14 12 9 6 7 11 16 20 20 18 16 16 16 17 17 17 16 15 14 13 13 12 12 11 11 10 10 10 10 10 9 8 7 6 5 4 3 4 4 4 4 4 4 3 4 4 5 5 4 4 4 4 4 4 3 3 3 3 3 4 4 4 4 4
11 11 11 11 11 11 11 12 14 16 17 17 17 17 17 17 18 19 18 18 16 15 13 12 10 8 7 8 14 20 21 20 17 15 15 16 17 17 16 15 14 13 12 12 11 11 10 10 10 10 9 9 8 7 6 5 4 4 4 4 4 4 4 4 3 3 3 4 5 5 4 4 5 5 4 4 4 3 3 2 3 3 4 4 4 4
11 12 12 12 12 11 11 12 14 16 17 18 17 17 16 16 18 19 18 17 16 15 13 11 10 9 8 8 14 21 23 22 18 15 13 12 15 17 16 14 13 12 12 12 11 11 10 9 9 9 9 8 7 6 6 5 4 4 4 4 4 4 4 4 3 3 3 4 5 5 4 4 4 4 4 4 4 3 2 2 2 2 3 4 4 4
11 12 12 12 12 11 11 12 14 16 18 19 19 18 17 17 18 18 17 17 16 15 13 11 9 8 8 9 14 21 24 23 19 13 10 9 12 15 15 14 13 12 11 12 12 10 9 9 9 9 8 7 7 6 6 5 5 5 5 5 4 4 4 4 4 4 3 4 4 5 4 4 4 5 5 4 4 4 3 2 2 2 2 3 3 3
11 12 13 12 12 11 11 12 15 17 19 19 19 18 18 18 17 17 17 16 15 14 13 11 9 9 11 12 15 19 23 23 18 13 9 8 10 13 16 14 13 11 10 11 11 10 9 9 9 8 8 7 7 7 7 6 6 5 5 5 4 5 5 5 5 4 3 4 4 5 5 5 5 5 5 5 5 4 4 3 2 2 1 1 2 2
11 10 11 12 12 12 11 12 14 17 19 20 20 19 18 18 17 17 17 16 15 14 12 11 11 12 14 15 16 18 22 23 19 13 9 7 7 11 16 15 13 11 9 10 11 10 9 9 9 8 8 8 8 8 8 7 7 6 6 5 4 5 5 5 5 4 3 4 5 5 5 5 5 5 5 5 5 5 5 5 4 2 2 1 1 1
10 10 9 11 13 12 11 11 14 16 18 19 19 19 19 18 18 17 17 17 16 15 14 14 15 15 15 15 14 16 19 22 21 16 10 7 6 8 14 14 13 12 9 11 11 10 9 9 9 9 8 8 8 8 8 8 8 7 6 5 5 5 5 5 4 3 3 5 5 5 5 5 5 5 5 5 6 6 6 6 5 4 3 2 1 1
9 8 8 10 13 13 12 12 13 15 17 18 18 17 17 19 19 18 18 18 18 17 17 17 14 13 12 12 13 14 17 20 21 18 12 7 6 8 12 13 13 11 10 11 11 10 9 9 9 9 8 8 8 8 8 8 8 7 6 5 5 5 6 5 4 3 3 5 5 5 4 4 4 4 4 5 5 5 5 6 5 5 4 3 2 2
11 9 10 12 13 13 13 13 13 14 15 18 19 19 19 19 19 19 20 19 18 17 16 14 10 9 9 10 12 14 16 17 19 19 13 8 6 7 11 12 12 10 9 11 10 9 9 9 9 9 8 8 8 8 8 8 8 8 7 6 6 6 6 5 3 3 3 4 4 4 3 3 3 3 3 3 3 4 4 5 5 5 4 4 4 4
13 13 13 13 12 12 12 11 11 12 14 17 19 20 20 19 19 19 18 17 16 16 14 11 8 7 8 9 10 12 15 16 18 19 15 10 6 7 10 11 12 11 8 10 10 9 9 8 8 9 9 9 8 8 8 8 8 8 8 7 6 7 6 5 4 4 4 4 4 3 3 2 2 2 2 2 2 2 2 3 4 4 4 5 5 5
11 11 11 11 11 11 10 9 9 10 11 14 17 19 20 19 18 17 16 16 16 15 12 10 8 7 7 7 8 11 16 17 17 18 17 12 7 6 9 11 12 11 9 9 10 11 10 8 8 9 9 9 8 8 8 8 9 9 8 7 7 7 7 6 6 5 5 4 4 4 3 3 3 3 2 2 2 1 1 1 2 2 3 2 3 3
8 9 10 10 10 10 10 9 9 9 10 12 15 17 18 17 16 15 14 15 16 14 11 10 8 7 7 6 7 11 16 17 17 17 16 12 7 5 9 12 12 11 8 8 10 11 10 10 9 10 9 9 8 8 8 8 8 8 8 8 8 8 7 7 6 6 5 5 4 4 4 3 3 3 3 3 2 2 2 2 2 2 1 1 2 3
8 9 10 10 10 10 10 10 10 10 10 12 14 15 16 15 14 14 15 17 16 13 11 10 9 8 7 7 8 9 13 16 17 17 15 11 7 6 11 13 14 12 9 7 7 8 8 10 10 10 9 9 9 8 8 8 8 8 8 8 8 8 8 7 7 6 6 6 5 5 4 4 4 3 3 3 3 3 3 3 3 2 2 3 3 4
9 9 10 10 10 11 11 11 11 11 11 12 13 14 14 13 13 14 17 18 17 13 10 9 9 9 8 7 6 5 7 12 16 17 16 11 7 7 11 13 14 14 10 7 4 3 4 7 9 10 10 9 8 8 9 9 10 10 10 9 9 9 9 9 8 8 7 7 6 6 6 5 5 5 5 5 5 5 4 5 4 3 3 4 4 5
10 11 11 11 11 11 12 12 12 12 12 12 13 13 13 12 12 14 16 18 17 15 12 10 10 11 10 7 4 3 4 10 16 18 16 12 8 8 11 13 14 15 13 8 4 2 2 4 6 9 10 9 9 9 10 11 12 13 12 11 10 10 11 11 10 9 9 8 7 6 6 6 7 7 7 7 7 7 6 6 5 4 4 4 5 5
12 12 13 13 13 13 13 13 13 14 13 13 13 12 12 11 10 10 12 16 17 16 14 13 12 12 11 8 6 4 4 10 15 18 17 13 10 11 13 13 15 16 15 12 6 2 1 2 3 6 8 9 10 11 12 13 14 15 15 12 11 11 12 12 11 10 9 8 7 6 6 7 7 8 8 9 9 9 8 8 7 6 5 5 6 6
13 13 14 15 15 15 15 15 15 15 14 14 13 12 11 10 9 9 10 13 15 16 15 14 13 12 10 9 6 5 5 10 14 18 19 15 13 12 14 15 15 16 16 14 9 4 2 3 3 4 6 9 11 12 13 15 16 16 16 14 12 12 12 12 11 10 9 9 8 8 8 8 8 8 9 9 10 10 10 10 9 8 7 7 6 6
13 13 13 14 15 15 15 15 15 15 14 14 13 12 11 11 10 10 11 12 13 14 13 13 13 12 10 8 6 5 6 9 13 17 19 18 14 13 15 15 15 15 15 13 10 6 3 3 4 4 5 7 10 12 14 15 16 17 17 15 13 12 12 12 11 11 10 10 10 10 10 10 9 9 9 10 10 10 11 11 11 11 10 9 8 7
12 12 13 13 13 14 14 14 14 14 14 13 13 12 11 11 11 11 12 13 13 13 12 12 12 11 10 8 7 6 7 10 13 17 18 19 16 14 15 15 15 14 12 10 8 6 4 4 5 5 5 5 7 10 14 16 17 17 17 17 15 14 14 13 13 12 12 12 11 11 11 11 11 11 11 11 11 11 11 11 12 12 12 11 10 8
10 11 11 12 12 12 12 13 13 13 13 13 12 12 12 12 12 12 13 13 13 13 12 12 12 12 12 10 8 8 10 11 14 16 17 18 16 14 13 14 14 14 11 9 7 6 5 5 5 6 5 5 5 7 11 15 17 17 17 17 16 16 16 15 15 14 14 13 12 11 12 12 13 13 13 13 12 12 12 12 12 12 12 12 11 10
9 10 10 10 11 11 11 12 12 12 13 13 12 12 12 12 12 12 12 12 12 12 12 12 11 11 11 11 10 10 11 12 13 15 16 16 16 14 13 14 15 14 12 9 8 7 6 5 5 5 5 5 5 5 8 13 15 16 16 16 16 16 16 16 15 15 14 13 12 12 12 13 14 14 15 14 14 13 13 13 13 13 12 12 12 12
9 9 9 10 10 11 11 10 11 12 13 13 13 12 12 12 12 12 11 11 11 11 10 10 10 10 10 10 9 9 9 11 12 13 14 14 14 14 13 13 14 14 13 11 10 9 7 6 6 5 5 6 5 5 7 10 11 11 12 14 15 15 15 15 15 15 14 13 13 13 13 14 14 15 16 15 15 14 13 13 13 13 13 13 13 13
9 9 9 10 10 10 10 10 11 12 13 13 12 12 12 11 11 11 10 10 10 9 9 9 9 9 9 9 9 9 10 11 12 13 13 13 13 13 12 12 13 13 14 12 11 9 7 6 6 6 6 5 5 5 7 9 9 9 9 10 12 13 14 14 14 14 13 13 13 14 14 14 15 15 15 15 15 13 12 11 11 11 12 12 12 13
9 9 9 10 10 10 9 10 12 13 13 13 12 11 11 11 11 10 10 9 9 9 9 9 9 9 9 10 10 11 11 12 12 12 12 12 12 12 11 11 11 12 13 13 11 9 7 6 6 5 5 5 5 5 6 7 8 8 8 7 7 8 10 11 12 13 13 13 14 14 14 14 14 14 14 14 13 12 11 10 10 10 11 11 10 10
10 9 9 10 10 9 9 12 13 14 13 12 12 11 11 11 11 11 10 10 10 9 9 9 9 9 9 9 10 10 11 11 11 11 11 11 11 11 11 10 10 11 12 12 11 9 7 5 5 4 4 4 4 5 5 6 7 8 8 6 5 5 6 8 10 11 12 12 13 13 12 12 12 12 11 11 11 11 11 11 11 11 11 11 10 9
10 9 9 10 11 12 13 13 13 13 12 12 12 12 12 12 12 12 12 12 11 11 11 11 11 10 10 10 9 9 9 10 10 10 10 10 10 10 10 10 10 11 11 11 10 9 7 5 5 4 4 4 4 4 4 5 6 7 8 7 5 5 5 6 8 10 9 9 9 9 9 8 8 8 8 8 8 9 10 11 12 11 11 11 11 11
10 9 9 10 13 14 14 14 13 13 12 12 12 12 12 12 12 12 12 12 12 13 12 12 11 10 10 9 9 9 9 9 9 9 9 9 9 9 9 10 10 10 10 9 8 8 7 6 6 5 5 5 4 4 4 5 5 6 7 7 6 4 3 4 6 7 7 7 7 7 6 6 6 6 7 8 9 9 10 11 11 11 11 11 11 12
10 10 10 12 14 15 15 14 13 13 13 13 13 13 13 13 13 12 12 11 12 13 13 12 10 9 7 7 8 9 10 9 9 9 9 9 9 9 9 10 10 10 10 9 7 7 7 7 6 6 6 5 5 5 4 4 5 5 6 6 7 6 5 4 4 6 7 7 7 7 7 7 7 8 8 9 9 10 11 11 11 11 11 11 11 12
11 12 13 14 15 15 14 14 14 13 13 12 12 13 13 14 13 12 11 11 12 13 14 13 10 8 6 6 7 8 9 10 10 10 10 10 10 10 10 10 10 10 10 9 7 6 6 6 6 7 7 7 7 6 5 5 5 5 5 6 7 7 8 6 6 6 6 6 6 6 7 8 9 9 9 9 9 9 10 10 11 12 12 12 12 13
13 13 14 15 15 14 13 13 13 13 12 11 11 12 14 14 14 12 11 11 12 13 13 13 10 8 7 7 7 7 8 9 10 11 11 11 11 10 11 11 11 11 11 10 8 7 6 5 5 6 7 7 7 7 7 6 6 5 5 5 6 6 7 7 7 7 7 6 6 6 7 8 9 8 8 7 7 8 9 10 11 11 12 12 13 13
13 14 14 14 14 13 13 12 12 12 11 10 11 12 14 15 14 12 11 11 12 12 12 11 9 7 7 7 7 7 7 7 8 9 11 11 11 11 11 11 11 11 11 11 11 10 9 8 7 7 6 6 5 6 7 7 7 6 6 5 6 6 6 6 7 7 7 7 7 7 8 8 8 7 6 6 6 7 8 9 10 11 11 12 12 13
14 14 14 14 13 12 11 11 12 11 10 10 11 12 14 15 14 12 11 12 12 12 11 10 8 7 7 7 7 7 7 7 7 7 9 10 11 11 11 11 10 10 11 11 11 11 11 11 11 10 9 7 5 5 5 6 6 6 6 6 6 6 6 6 6 6 7 7 8 9 8 7 6 5 5 5 5 5 6 7 8 9 10 11 11 12
14 14 15 14 13 12 11 12 12 11 10 10 11 12 14 15 14 13 11 11 11 11 9 9 8 7 7 7 7 7 7 7 6 7 8 9 10 11 10 10 10 10 9 9 10 10 11 11 12 12 12 11 8 6 5 5 5 5 5 5 6 6 6 5 5 6 6 7 8 9 9 8 7 6 5 4 4 4 5 6 6 7 8 9 10 11
14 14 15 14 13 12 12 12 12 11 11 11 11 12 14 15 14 12 11 11 10 10 9 8 8 8 7 7 7 7 7 7 6 7 7 9 10 11 10 10 9 8 7 6 6 7 7 8 10 11 12 13 12 10 8 6 5 5 6 6 6 6 6 5 5 5 6 6 7 8 8 8 8 7 6 5 4 5 5 5 6 6 6 8 9 10
14 14 14 14 13 13 12 13 12 12 11 11 11 12 14 14 13 12 11 11 10 9 8 8 8 7 7 7 7 7 8 7 7 7 7 9 11 11 11 10 9 7 5 4 4 4 3 4 5 8 10 11 11 11 12 9 7 6 5 6 6 6 5 5 5 5 6 5 6 7 7 8 8 7 6 5 5 4 5 5 5 5 5 6 8 9
Wind_Direction
226 228 232 232 223 212 208 207 202 197 195 195 194 192 192 193 194 195 194 193 192 193 193 192 192 193 194 196 199 203 206 209 208 205 200 197 192 177 160 159 161 163 162 161 162 163 163 161 160 160 159 156 154 152 150 149 148 148 147 145 144 144 146 147 147 150 158 167 176 185 194 201 202 200 195 192 189 187 189 193 195 191 186 178 162 135
224 224 223 222 213 204 200 202 200 197 195 194 193 193 193 192 192 192 191 190 190 190 190 189 189 189 189 191 194 196 199 201 200 198 195 194 188 173 160 159 161 162 163 164 166 169 169 169 170 170 169 166 165 164 163 162 162 162 162 160 158 157 158 160 163 168 175 184 191 197 204 207 206 203 198 196 194 194 199 206 208 205 202 196 185 165
213 211 210 209 202 195 192 193 196 198 198 196 195 194 193 191 190 189 188 188 189 189 189 188 187 186 185 184 184 187 191 192 191 191 190 188 182 173 165 163 163 165 165 165 168 172 173 174 176 178 178 178 178 177 176 176 176 177 176 176 176 177 179 183 188 194 200 205 209 213 216 216 213 208 203 200 199 200 206 213 214 212 211 204 196 188
203 197 197 194 191 190 190 189 190 193 197 197 196 194 191 189 188 188 188 188 188 189 190 190 189 186 183 179 176 177 182 184 186 187 186 185 182 179 172 167 166 167 168 167 167 170 174 177 180 184 187 189 190 190 190 190 191 191 191 192 194 196 199 203 209 214 218 222 225 227 229 228 224 218 213 209 207 208 211 215 216 215 214 207 200 197
197 192 190 182 179 182 188 188 188 190 193 193 191 189 187 188 188 188 189 190 190 190 190 190 189 187 184 180 176 174 177 181 186 187 186 184 183 181 175 171 171 171 170 168 169 171 174 177 182 188 193 197 200 202 204 207 208 208 208 209 211 214 218 222 226 231 234 238 240 241 242 240 236 231 225 219 214 212 212 214 215 217 217 211 206 204
191 188 185 178 175 178 184 186 187 188 187 186 185 185 185 187 188 187 186 187 188 189 188 188 187 187 185 182 178 176 180 184 187 188 188 188 186 183 179 176 175 174 170 168 169 172 174 177 182 188 195 201 206 211 215 218 220 221 222 222 225 228 232 235 239 243 246 249 250 251 249 247 244 239 233 225 219 215 213 212 213 215 217 217 213 210
181 182 179 177 178 180 181 183 186 187 183 180 180 182 184 185 184 184 183 185 186 186 186 185 185 186 186 184 181 180 182 187 191 193 194 197 195 189 183 179 176 174 171 169 169 172 174 177 181 187 193 199 204 209 215 220 224 227 228 230 233 237 242 245 248 251 254 255 255 254 251 248 244 240 234 228 222 217 213 211 210 212 215 218 217 213
169 175 177 178 179 178 179 181 184 186 184 181 178 178 180 181 182 182 183 184 185 185 184 184 184 185 186 184 182 180 180 180 184 191 198 201 197 189 183 179 176 175 173 170 170 172 174 177 180 185 189 191 194 197 204 213 220 228 234 240 245 250 254 256 258 259 259 258 256 252 249 244 240 235 231 226 221 217 212 208 206 206 210 213 216 214
168 170 177 181 179 174 173 179 183 186 186 185 182 179 177 178 180 181 182 183 184 185 184 183 184 185 186 184 183 181 177 171 170 175 182 187 187 186 182 181 179 177 175 172 172 174 176 178 181 184 189 192 196 202 211 219 229 240 253 261 266 268 269 270 269 267 262 253 244 239 238 236 232 229 226 223 219 215 210 205 201 199 201 202 203 204
174 172 174 181 183 180 174 176 182 185 185 186 186 186 183 179 177 177 178 180 183 185 185 184 184 184 184 184 183 182 178 174 172 172 171 171 172 173 174 175 176 176 174 173 174 176 178 179 182 187 194 200 209 218 229 238 250 263 274 278 280 278 276 275 272 266 252 227 203 191 195 208 218 222 222 220 217 213 209 204 200 196 194 192 190 189
173 173 171 174 181 183 181 181 183 184 183 183 185 188 189 186 181 177 174 176 180 182 183 184 184 182 180 181 183 184 182 180 179 179 178 175 172 169 167 166 166 168 169 170 173 177 179 181 185 192 200 209 222 235 247 258 270 280 285 286 283 279 275 270 266 253 227 197 180 174 173 172 179 199 214 217 215 211 208 204 200 196 192 188 185 185
172 173 173 173 176 179 182 185 186 184 182 180 181 186 191 191 189 185 180 178 178 179 181 184 185 184 181 179 180 183 184 182 181 182 182 182 179 176 172 171 170 171 173 177 182 187 190 191 194 200 207 219 232 247 259 271 280 287 288 286 280 274 267 261 251 233 206 186 178 174 171 160 148 146 165 187 200 203 203 202 201 198 194 190 187 186
174 174 174 176 177 179 180 180 181 182 183 184 186 189 192 193 192 189 186 183 182 181 182 182 184 186 188 186 184 181 181 182 184 184 183 184 184 183 181 180 181 183 187 192 199 206 212 213 213 216 223 231 243 256 268 277 284 287 285 279 269 258 251 242 232 215 197 184 180 175 168 156 141 130 131 139 155 173 186 193 196 196 193 191 189 190
173 172 173 176 181 184 183 180 179 182 189 194 196 196 193 191 188 186 184 181 182 183 182 180 181 184 188 189 188 186 182 182 184 185 185 186 187 188 188 189 192 196 202 208 216 224 229 231 232 235 240 245 253 262 271 278 283 283 276 262 246 233 226 224 220 212 197 186 180 175 167 155 143 133 129 130 135 143 155 168 178 182 184 185 186 189
174 173 176 182 187 189 189 186 187 191 195 197 198 195 191 188 185 183 178 174 175 176 176 174 177 182 186 188 190 189 187 184 183 185 187 189 191 194 195 197 202 207 214 219 226 232 237 239 240 243 247 251 255 261 268 274 277 273 258 233 215 210 214 219 222 216 202 188 180 174 168 159 150 144 138 135 135 139 144 152 159 165 169 173 176 180
181 180 185 190 193 194 194 193 194 195 196 196 195 192 185 182 182 182 178 172 169 168 166 164 166 178 193 194 193 192 191 187 185 187 189 192 196 199 202 204 208 214 220 225 230 234 238 240 241 243 246 249 253 258 262 265 264 253 224 202 199 208 217 225 229 224 209 192 181 175 170 166 162 157 150 146 144 145 151 155 159 161 163 166 170 177
189 190 195 197 198 198 198 197 197 197 196 195 194 192 187 184 182 181 178 172 168 166 169 170 171 177 191 197 197 196 194 191 190 191 194 197 200 203 206 209 212 217 222 227 231 234 236 237 239 240 243 247 250 254 255 251 240 218 194 193 203 215 226 234 235 229 214 197 186 180 177 177 174 169 162 158 156 157 162 167 170 170 169 169 174 179
194 196 200 202 202 201 197 196 197 197 196 194 194 193 190 187 183 181 177 173 170 172 177 180 183 184 181 187 199 200 196 194 192 192 196 200 204 207 209 211 215 219 223 228 232 234 235 236 237 238 241 243 246 246 241 229 209 191 187 198 211 223 232 236 236 228 218 202 190 183 181 182 183 180 176 172 169 169 173 182 186 186 182 181 182 186
200 202 204 206 208 205 198 194 194 195 195 193 191 188 185 183 182 180 178 176 176 178 181 185 189 190 185 181 194 198 195 195 193 191 194 201 208 210 210 212 216 222 227 231 234 235 236 236 236 237 238 239 238 233 222 205 192 188 195 204 213 222 230 231 232 229 223 206 191 183 182 184 186 185 183 181 178 175 176 182 191 194 192 190 190 194
205 207 209 210 210 207 201 199 198 197 196 195 192 187 182 181 180 180 180 181 183 184 185 186 188 188 184 184 192 195 193 193 191 189 192 200 210 213 212 214 217 223 230 235 237 237 236 235 234 234 233 232 228 219 205 194 190 194 201 207 213 218 223 228 234 237 231 205 187 179 180 182 185 187 186 185 183 179 174 171 172 179 185 189 193 198
215 216 217 213 209 207 207 205 204 203 201 197 191 186 182 181 181 183 184 183 184 186 187 187 187 187 187 188 191 192 192 191 189 186 192 200 211 216 216 216 218 222 228 236 239 237 233 232 230 228 225 220 215 207 198 192 192 197 202 206 210 215 221 230 240 245 234 200 181 177 181 186 190 192 193 192 192 191 188 184 179 176 173 175 187 203
220 220 218 212 209 209 211 208 207 207 206 199 191 186 185 183 183 185 186 185 184 184 185 185 187 190 192 192 191 191 191 192 190 187 189 196 209 218 219 218 218 220 222 233 238 235 230 226 224 221 218 214 209 203 198 195 196 199 201 203 206 212 221 232 244 246 222 188 178 181 189 195 199 201 204 206 207 208 206 201 196 190 184 178 189 211
221 221 218 214 212 211 208 206 207 209 209 202 195 191 191 188 187 186 186 184 183 182 183 184 188 192 194 193 191 190 192 194 193 191 189 197 203 212 220 218 218 218 220 231 234 230 223 220 217 215 214 212 210 207 204 202 202 202 201 202 206 212 221 233 242 234 201 181 179 185 195 202 207 211 215 218 220 221 220 215 209 204 203 203 208 214
218 218 214 215 215 213 208 205 207 209 206 200 195 193 193 192 190 188 187 185 183 184 185 186 184 182 184 186 186 187 191 196 197 195 192 199 205 210 216 215 213 213 220 229 228 221 216 213 212 211 211 211 212 212 211 211 210 207 203 204 208 213 219 228 230 212 187 179 181 189 199 207 211 215 220 224 225 226 224 220 215 211 210 213 220 224
212 214 217 219 219 215 211 210 210 209 204 198 194 192 191 191 191 190 188 185 183 181 179 171 161 158 167 174 180 185 190 194 197 196 191 197 202 208 215 211 205 204 215 223 219 210 206 207 208 209 210 212 214 216 219 220 217 211 205 205 208 212 215 218 213 199 187 184 187 193 201 205 209 214 219 223 223 220 219 216 214 213 216 220 223 222
215 218 220 218 214 210 208 211 214 213 209 202 197 194 192 190 188 185 181 179 176 171 163 157 154 157 164 167 175 184 189 190 195 197 195 195 199 208 213 209 202 199 204 211 206 199 197 200 205 209 211 214 216 220 223 226 222 213 203 204 207 208 207 205 201 196 195 194 196 200 203 206 209 214 219 222 221 214 210 209 212 215 220 226 231 235
212 212 209 204 197 193 192 196 200 204 205 203 200 196 192 186 179 172 166 169 169 166 161 163 163 163 164 169 177 185 189 189 192 197 199 199 197 202 207 205 200 194 192 195 195 193 191 194 202 210 214 217 221 224 227 228 221 210 200 202 205 204 201 198 195 195 196 198 200 204 207 209 212 216 223 230 231 225 218 219 223 226 227 232 250 263
192 190 186 183 180 177 175 175 177 181 187 193 196 195 191 181 171 165 167 171 170 168 168 170 167 164 168 174 181 186 189 190 192 196 199 198 194 196 202 199 193 186 178 182 190 194 196 201 208 213 219 223 226 228 228 223 212 200 194 198 200 198 195 193 191 190 190 191 194 197 202 205 209 215 221 229 232 235 237 245 256 267 277 281 274 272
169 168 167 167 166 163 161 158 157 160 168 179 186 188 187 180 175 173 175 174 171 169 173 173 169 165 165 164 172 183 191 195 197 198 197 193 190 197 200 193 187 181 172 170 181 196 208 215 219 222 226 229 230 227 219 209 195 186 184 189 191 190 188 186 184 183 183 183 184 186 188 193 198 206 214 222 227 232 237 242 250 268 284 282 272 267
148 149 149 150 149 147 144 142 143 148 156 167 175 180 182 183 184 185 183 178 172 169 171 169 165 158 153 149 154 175 197 203 204 201 195 189 188 195 195 189 185 182 175 163 161 184 213 226 229 230 229 230 226 217 204 192 183 176 173 174 176 180 184 183 183 184 186 188 189 190 191 193 197 203 209 216 220 225 230 234 239 254 269 272 272 271
141 139 136 135 134 133 132 135 139 145 153 162 169 174 178 183 190 194 192 185 178 174 171 167 164 162 158 153 154 173 197 205 206 204 196 187 185 190 187 183 184 185 181 170 162 171 179 209 226 230 226 222 215 203 192 185 180 176 171 169 172 181 188 190 191 194 198 201 205 208 211 214 216 218 220 223 225 227 231 233 234 243 265 272 273 273
150 147 142 138 137 137 139 142 146 150 156 160 164 166 169 174 183 192 195 191 186 182 177 174 172 172 172 176 182 183 181 203 205 203 197 190 187 189 188 183 184 186 186 180 173 161 147 155 185 207 212 209 202 195 188 185 184 182 179 176 180 189 196 198 202 206 213 220 229 238 242 244 243 241 240 239 239 239 239 240 239 242 257 268 271 272
156 153 150 148 147 147 148 150 152 155 157 158 159 160 162 165 168 175 183 189 190 189 186 183 179 178 180 186 188 185 188 204 204 200 196 193 189 188 189 186 184 186 189 189 188 181 152 135 144 165 188 195 195 192 190 189 190 190 189 188 191 197 202 206 211 219 229 239 251 260 265 266 264 261 256 254 252 250 250 249 248 246 248 255 263 268
154 153 151 150 149 149 150 152 154 155 156 157 158 160 162 164 165 167 172 179 186 191 193 190 185 181 182 184 186 190 201 209 202 196 195 193 190 186 187 185 184 185 187 192 195 193 174 152 144 149 166 185 194 195 194 194 195 197 199 200 202 206 211 215 221 231 242 251 261 268 271 273 272 270 266 262 260 258 256 256 255 252 249 247 251 259
151 150 149 148 148 147 148 150 152 154 156 158 160 163 166 168 169 170 171 175 180 185 189 190 189 187 184 184 184 188 199 205 198 193 193 194 192 187 184 184 185 185 183 186 189 187 175 167 160 156 157 169 189 200 203 202 202 204 207 210 214 218 222 227 233 240 248 256 263 268 271 272 272 271 269 267 264 262 260 259 258 256 252 248 246 249
150 150 150 150 149 148 148 149 151 154 158 161 164 166 169 171 172 173 173 175 178 181 184 187 190 192 194 193 191 194 201 201 194 190 191 194 194 188 181 184 186 186 182 181 182 181 174 169 168 167 165 168 178 197 207 209 209 210 214 218 223 227 232 236 240 245 250 255 260 264 267 269 270 270 270 269 268 266 264 262 261 258 254 249 244 242
153 154 155 155 154 153 152 152 153 156 159 162 164 166 168 168 169 171 173 174 176 178 180 183 186 190 194 197 201 204 205 198 190 186 189 192 194 190 184 187 189 189 185 181 180 179 173 169 170 176 183 186 184 185 196 209 212 215 220 224 228 232 236 239 242 245 249 252 254 258 262 267 269 270 271 271 270 268 266 264 262 259 256 250 244 239
160 161 161 161 160 159 157 156 157 159 162 162 163 163 164 164 164 165 167 169 170 172 175 177 179 182 184 186 189 192 192 186 182 181 184 187 191 193 191 191 192 193 192 189 185 181 175 173 176 184 194 199 193 182 184 197 204 210 218 225 229 232 236 240 243 246 248 251 253 256 261 265 268 270 271 272 271 269 267 264 262 259 256 252 247 241
167 166 167 167 166 164 162 161 162 165 168 167 166 164 162 162 162 163 163 165 166 168 170 172 173 174 174 172 171 170 171 172 174 176 178 181 186 190 192 192 193 195 197 196 192 187 184 185 188 190 191 193 189 188 191 193 193 197 207 220 229 235 239 242 244 247 250 253 256 259 262 265 267 269 270 270 269 266 263 261 258 255 253 251 247 243
171 171 172 172 171 168 164 166 170 174 174 171 169 166 165 164 165 165 167 167 167 167 168 169 169 168 167 165 163 163 164 167 169 172 175 178 181 185 188 191 194 196 197 197 194 191 191 197 199 196 191 186 182 182 186 192 194 193 195 204 216 230 241 246 249 252 254 256 259 261 262 264 265 266 266 265 263 260 255 251 249 249 248 246 243 241
173 173 172 174 172 169 169 176 179 179 176 174 172 171 171 171 171 171 171 171 171 170 169 168 167 166 165 164 163 163 164 167 169 172 175 177 180 183 185 189 193 196 195 195 193 192 194 200 203 200 194 187 182 181 184 190 195 197 198 202 207 214 227 242 250 256 258 260 260 260 260 260 261 260 260 258 257 254 250 245 244 245 246 243 239 235
174 172 171 172 174 178 183 184 183 180 179 179 179 179 180 180 178 176 175 174 174 173 172 170 167 165 163 164 166 168 170 172 174 177 179 182 184 186 188 190 193 195 194 193 193 194 197 201 202 201 197 192 188 188 191 194 197 202 207 210 215 225 236 241 249 256 257 258 258 256 253 251 250 249 248 247 247 248 249 249 248 247 245 243 240 236
175 172 169 173 180 185 187 186 183 182 183 184 184 185 187 186 184 180 178 176 176 176 175 172 169 166 165 167 172 177 180 183 186 188 190 192 194 195 196 197 198 198 196 194 193 196 201 203 205 206 203 199 198 199 200 199 201 206 213 214 215 215 221 223 240 252 256 256 253 250 244 237 233 233 236 238 242 247 253 255 254 251 248 246 245 242
170 168 170 177 183 186 187 185 184 184 184 184 185 187 189 188 185 181 178 176 177 178 177 174 169 166 166 170 179 188 192 195 197 201 202 204 205 206 206 206 205 204 202 197 195 197 203 206 208 209 207 205 206 209 211 209 209 210 212 217 218 218 216 216 228 244 258 259 257 253 246 237 233 235 241 245 250 254 259 261 261 258 254 251 249 248
167 170 174 179 181 181 180 182 183 184 183 183 184 185 187 185 182 179 178 175 176 178 178 174 170 167 172 174 179 190 200 204 206 209 211 211 212 212 212 212 211 209 207 203 200 200 200 204 207 209 211 211 212 215 218 218 217 217 217 220 226 230 230 230 232 237 244 247 247 246 245 243 242 244 249 254 258 260 261 262 263 263 261 258 255 253
173 175 175 177 177 177 177 179 180 179 178 178 181 183 184 183 180 178 178 176 175 176 178 176 174 174 179 181 180 183 193 203 210 214 215 215 214 214 214 215 214 213 211 208 207 208 209 208 204 204 210 213 217 221 223 222 222 221 222 222 225 232 238 239 240 240 238 235 231 231 236 243 247 249 251 254 255 256 259 261 262 263 263 262 260 258
175 174 174 174 174 174 176 177 177 176 174 175 177 180 182 181 178 176 177 177 175 175 176 178 181 185 188 185 183 181 183 188 198 210 216 216 215 214 214 215 215 216 215 214 212 212 213 211 207 204 202 203 210 219 224 224 223 223 223 223 224 227 232 236 238 238 236 231 225 224 231 241 246 247 246 247 249 253 258 263 265 266 266 263 261 261
174 173 172 172 171 170 171 174 174 173 172 173 175 179 181 181 178 174 174 176 176 176 176 180 186 193 195 192 188 185 184 183 182 191 207 212 213 212 212 213 214 216 219 221 222 222 223 221 219 217 213 208 210 216 216 218 219 220 221 222 224 227 231 232 233 234 236 232 229 229 232 233 232 231 233 239 245 250 254 260 266 270 270 266 263 262
174 172 171 170 169 168 170 172 173 173 172 171 173 177 180 182 180 177 175 176 177 178 179 184 189 194 195 193 190 188 186 184 181 183 193 204 209 209 208 209 211 215 219 225 230 235 238 239 237 233 229 223 222 224 222 219 217 216 218 220 223 227 230 231 229 228 230 235 239 239 235 228 223 223 225 233 242 248 252 256 261 267 269 267 265 263
173 172 171 170 169 170 171 172 173 173 173 172 172 175 179 181 181 181 180 180 180 182 185 189 192 194 196 193 190 188 188 187 185 183 188 200 204 204 203 203 203 205 210 221 232 239 245 253 252 249 245 237 232 228 226 226 224 222 222 223 224 225 227 227 225 223 223 230 241 244 236 226 223 225 228 232 242 251 256 257 257 257 259 265 267 266
172 172 172 172 172 172 172 173 174 174 174 173 174 175 178 179 181 182 184 185 185 187 191 193 195 197 197 194 191 190 191 190 189 187 187 198 201 200 198 196 191 186 185 193 200 205 214 242 257 257 252 246 240 234 228 223 221 222 223 224 224 223 221 220 220 218 215 217 230 239 235 227 225 226 227 228 235 246 253 253 250 244 244 258 267 271
Height
786 786 786 786 786 787 787 788 789 790 791 791 792 793 794 795 796 797 798 799 799 800 801 801 802 803 803 804 804 805 805 806 806 807 807 807 808 808 808 809 809 810 810 811 811 811 811 812 812 813 813 813 813 813 813 814 814 814 815 816 816 816 816 816 816 816 816 816 816 817 817 817 817 817 817 818 818 818 819 819 819 819 819 819 819 819
785 785 785 785 786 786 787 788 788 789 790 791 792 793 793 794 795 796 796 797 798 799 800 801 802 802 803 804 804 804 805 806 806 806 807 807 807 808 808 808 809 810 810 810 810 811 811 811 812 812 813 813 813 813 813 813 813 814 814 815 815 815 815 815 815 815 816 816 816 816 816 816 816 817 817 817 818 818 818 818 818 819 819 819 819 819
784 784 785 785 786 786 786 787 788 789 790 790 791 792 793 794 794 795 796 796 797 798 799 800 801 802 803 803 804 804 805 805 806 806 807 807 807 807 808 808 809 810 810 810 810 810 811 811 812 812 813 813 813 813 813 813 813 813 814 814 814 814 814 814 815 815 815 815 815 815 815 816 816 816 817 817 817 818 818 818 818 818 818 819 819 819
783 784 784 785 785 786 786 787 788 789 789 790 791 792 793 793 794 794 795 796 797 797 798 799 800 801 802 803 804 804 804 805 806 806 807 807 807 807 808 808 809 809 810 810 810 810 811 811 811 812 812 812 812 812 813 813 813 813 813 814 814 814 814 814 814 814 814 814 815 815 815 815 816 816 816 817 817 817 817 818 818 818 818 818 818 818
782 783 783 784 785 786 786 786 787 788 789 790 791 791 792 792 793 794 795 796 796 797 798 799 799 800 801 802 803 803 804 805 806 806 807 807 807 807 808 808 808 809 809 810 810 810 810 811 811 812 812 812 812 812 812 812 812 813 813 813 813 813 813 814 814 814 814 814 814 814 815 815 815 816 816 816 816 817 817 817 817 818 818 818 818 818
782 782 783 783 784 785 785 786 786 787 788 789 790 791 791 792 792 793 794 795 796 797 798 798 799 800 801 801 802 803 804 805 806 806 807 807 807 807 808 808 808 809 809 809 810 810 810 811 811 811 812 812 812 812 812 812 812 812 812 813 813 813 813 813 813 813 813 813 814 814 814 814 815 815 815 816 816 816 816 817 817 817 817 817 817 818
781 782 782 783 783 784 784 785 786 787 787 789 789 790 791 791 792 793 794 795 796 796 797 798 799 800 801 801 802 802 803 804 805 806 806 807 807 807 808 808 808 809 809 809 809 810 810 810 811 811 811 811 811 811 811 811 812 812 812 812 812 812 812 812 812 813 813 813 813 813 813 814 814 814 814 815 815 816 816 816 816 817 817 817 817 817
780 781 782 782 782 783 784 785 786 786 787 788 789 790 791 791 792 793 794 794 795 796 797 798 799 800 800 801 801 802 803 804 805 806 806 807 807 807 808 808 808 809 809 809 809 809 810 810 810 811 811 811 811 811 811 811 811 811 811 812 812 812 812 812 812 812 812 812 812 813 813 813 813 813 813 814 814 815 815 816 816 816 817 817 817 817
779 780 781 781 782 783 784 785 786 786 787 788 788 789 790 791 792 793 793 794 795 796 796 797 798 799 800 801 801 802 802 803 805 806 806 807 807 807 808 808 808 808 809 809 809 809 809 810 810 811 811 811 811 811 811 811 811 811 811 811 811 811 811 811 811 811 812 812 812 812 812 812 812 812 813 813 813 814 814 815 815 816 816 816 816 817
778 779 780 781 781 782 783 784 785 786 787 787 788 788 789 790 791 792 793 794 795 795 796 796 797 798 799 800 801 801 802 802 803 804 805 806 806 807 807 808 808 808 808 809 809 809 809 809 810 810 811 811 811 811 811 811 811 811 811 811 811 811 811 811 811 811 811 812 812 812 812 812 812 812 812 812 813 813 814 814 815 815 816 816 816 816
777 778 779 780 781 781 782 783 784 785 786 787 788 788 789 789 790 791 792 793 794 794 795 796 796 797 798 799 800 800 801 802 802 803 804 804 805 805 806 806 807 807 808 808 809 809 809 809 810 810 810 810 810 810 810 810 811 811 811 811 811 811 811 811 811 811 811 811 812 812 812 812 812 812 812 812 812 813 813 813 814 814 815 815 816 816
776 777 778 779 780 781 782 782 783 784 785 786 787 788 789 789 789 790 791 792 793 793 794 795 796 796 797 798 799 800 801 801 802 803 803 804 805 805 805 806 806 806 807 807 808 808 808 809 809 810 810 810 810 810 810 810 810 810 810 810 810 810 810 810 811 811 811 811 811 811 812 812 812 812 812 812 812 812 813 813 813 814 814 815 815 816
776 776 777 778 779 780 781 781 783 784 785 785 786 786 787 787 788 789 790 791 792 792 793 794 795 796 796 797 797 799 800 801 801 802 803 804 804 805 805 805 806 806 806 807 807 807 808 808 809 809 809 809 809 809 809 809 810 810 810 810 810 810 810 810 810 811 811 811 811 811 811 812 812 812 812 812 812 812 812 813 813 813 814 814 815 815
775 776 777 778 779 779 780 780 781 782 783 783 783 784 785 786 787 788 789 790 791 792 792 794 794 795 796 796 797 798 799 800 801 802 802 803 804 804 805 805 806 806 806 806 807 807 807 808 808 808 809 809 809 809 809 809 809 809 809 809 809 810 810 810 810 811 811 811 811 811 811 811 812 812 812 812 812 812 812 812 813 813 814 814 815 815
774 775 776 776 777 778 778 779 779 780 781 781 782 783 784 784 786 787 788 789 790 791 792 794 794 795 796 796 796 797 798 799 801 801 802 802 803 803 804 805 805 806 806 806 806 807 807 807 808 808 808 808 808 808 808 808 808 808 809 809 809 809 810 810 810 810 811 811 811 811 811 811 812 812 812 812 812 812 812 812 813 813 813 814 814 814
772 773 774 775 776 776 777 777 778 778 779 780 781 781 782 783 784 786 787 788 789 790 792 793 795 796 796 796 796 797 798 799 800 801 801 802 802 803 803 804 805 805 805 806 806 806 806 807 807 807 807 808 808 808 808 808 808 808 808 809 809 809 810 810 810 810 810 811 811 811 811 811 811 812 812 812 812 812 812 812 812 813 813 813 814 814
771 772 773 773 774 775 775 776 776 777 777 778 779 780 780 781 783 784 785 786 788 789 791 792 793 794 795 796 796 796 797 798 799 800 800 801 801 802 803 803 804 804 805 805 805 806 806 806 806 806 807 807 807 807 807 807 808 808 808 809 809 809 809 810 810 810 810 810 810 811 811 811 811 811 811 812 812 812 812 812 812 812 813 813 813 814
770 771 771 772 772 773 774 774 775 775 776 776 777 778 779 780 781 783 784 785 786 788 789 790 790 791 792 793 794 795 796 797 798 799 800 800 801 801 802 803 803 804 804 804 805 805 805 805 806 806 806 806 806 806 807 807 807 808 808 809 809 809 809 809 810 810 810 810 810 810 811 811 811 811 811 811 811 812 812 812 812 812 812 813 813 813
769 769 770 770 771 771 772 772 773 773 774 775 776 777 779 780 781 781 782 783 785 786 787 788 788 789 789 791 791 792 794 796 797 798 799 800 800 801 801 802 802 803 803 803 804 804 804 805 805 805 805 806 806 806 806 807 807 807 808 808 809 809 809 809 809 809 810 810 810 810 811 811 811 811 811 811 811 811 811 812 812 812 812 812 813 813
767 768 768 769 769 770 770 771 771 771 772 773 775 776 777 778 780 781 781 783 784 785 786 786 787 788 788 789 789 791 793 795 796 797 799 799 800 800 801 801 802 802 802 803 803 803 804 804 804 804 805 805 805 806 806 806 807 807 808 808 808 809 809 809 809 809 809 809 810 810 810 810 811 811 811 811 811 811 811 811 812 812 812 812 813 813
766 767 767 767 768 768 769 769 769 770 771 772 774 775 776 777 778 780 781 782 783 784 785 786 786 787 787 788 789 790 792 794 796 797 798 799 799 799 800 800 801 801 802 802 802 802 803 803 803 804 804 804 805 805 806 806 806 807 807 808 808 808 809 809 809 809 809 809 809 810 810 810 810 810 810 811 811 811 811 811 811 812 812 812 812 813
766 766 766 766 766 767 767 768 768 769 770 771 772 773 774 776 777 778 779 781 782 783 784 785 785 786 786 787 788 790 791 793 794 796 797 798 798 798 798 799 800 801 801 801 801 801 802 802 803 803 803 804 804 805 805 806 806 806 807 807 808 808 808 808 808 808 809 809 809 809 810 810 810 810 810 810 810 811 811 811 811 811 812 812 812 812
765 765 765 765 765 766 766 766 767 767 768 769 771 771 772 774 775 776 778 779 781 781 782 783 784 785 786 787 789 790 791 792 793 795 796 797 797 797 797 798 799 800 800 800 800 801 801 802 802 802 803 803 804 804 805 805 806 806 806 807 807 808 808 808 808 808 808 809 809 809 809 809 809 810 810 810 810 810 810 811 811 811 811 812 812 812
764 764 764 764 764 764 765 765 766 766 767 769 770 771 772 773 774 776 777 778 779 780 781 782 784 785 786 787 789 790 791 791 792 794 795 796 796 796 796 797 798 799 799 799 800 801 801 801 801 802 802 803 803 804 804 805 805 806 806 807 807 807 808 808 808 808 808 808 809 809 809 809 809 809 809 809 810 810 810 810 811 811 811 811 811 812
762 762 762 762 762 763 764 764 765 766 766 767 769 770 771 772 773 774 776 777 778 779 781 783 785 786 786 787 788 789 790 791 792 793 794 795 795 795 796 796 797 798 798 799 799 800 801 801 801 801 802 802 803 803 804 804 805 805 806 806 807 807 807 807 808 808 808 808 808 809 809 809 809 809 809 809 809 810 810 810 810 811 811 811 811 811
761 761 761 761 761 762 763 763 764 765 766 766 767 768 770 771 772 774 776 777 778 780 781 783 784 785 786 787 788 788 789 790 791 792 793 794 794 795 795 796 796 797 798 798 799 800 800 801 801 801 801 802 802 803 803 804 804 805 805 806 806 807 807 807 807 808 808 808 808 808 808 809 809 809 809 809 809 809 810 810 810 810 810 811 811 811
760 760 761 761 761 761 762 763 763 764 765 766 766 768 769 771 772 774 775 776 777 779 780 782 783 784 786 786 787 788 788 789 790 791 792 793 794 794 795 795 796 796 797 798 798 799 800 800 801 801 801 801 802 802 803 803 803 804 805 806 806 806 807 807 807 807 808 808 808 808 808 809 809 809 809 809 809 809 809 810 810 810 810 810 811 811
760 760 760 761 761 761 762 762 763 764 765 766 766 767 769 770 771 773 774 775 776 778 779 780 781 783 785 786 786 787 788 789 790 791 791 792 793 794 794 795 795 796 797 798 798 799 799 800 800 800 801 801 801 802 802 802 803 804 804 805 806 806 806 807 807 807 807 808 808 808 808 808 809 809 809 809 809 809 809 809 810 810 810 810 811 811
760 760 760 760 761 761 762 762 763 764 764 766 766 768 769 770 771 772 772 774 775 777 778 779 780 781 783 785 786 787 788 788 789 790 791 792 793 793 793 794 795 796 796 797 798 799 799 799 799 800 800 800 801 801 801 802 803 803 804 805 806 806 806 806 806 807 807 807 807 807 808 808 808 808 808 809 809 809 809 809 809 810 810 810 811 811
760 760 760 761 761 761 762 762 763 764 765 766 767 768 769 770 771 771 772 773 774 776 777 778 779 781 782 784 786 787 788 788 788 788 790 791 792 792 792 793 794 795 796 797 798 799 799 799 799 799 799 800 800 801 801 802 802 803 804 805 805 805 805 806 806 806 806 806 807 807 807 807 807 808 808 808 808 808 809 809 809 810 810 810 810 810
760 760 761 761 761 762 763 763 764 765 765 766 767 768 769 770 770 771 772 773 774 775 776 777 779 780 781 783 785 786 786 786 786 787 789 790 791 791 792 792 793 794 795 796 796 797 798 798 798 798 799 799 800 800 801 801 802 803 803 804 804 804 804 805 805 805 806 806 806 806 806 806 807 807 807 807 807 808 808 808 808 809 810 810 810 810
760 760 761 761 762 762 763 763 764 764 765 766 767 768 768 769 770 771 772 773 774 775 776 777 778 779 781 782 782 783 784 784 785 786 787 789 789 790 791 791 792 793 794 795 795 795 796 797 798 798 798 799 799 800 801 801 801 802 802 803 803 803 804 804 804 805 805 805 806 806 806 806 806 806 806 806 806 807 807 807 808 808 809 809 809 809
760 760 761 761 761 762 762 763 764 764 765 766 767 768 769 769 770 771 772 773 774 775 775 776 777 779 780 781 781 782 782 783 784 785 786 787 788 789 790 791 791 792 793 794 795 795 795 796 797 797 798 798 799 799 800 801 801 801 802 802 802 803 803 804 804 804 804 805 805 805 805 805 805 805 806 806 806 806 806 806 807 807 808 808 809 809
760 760 761 761 761 762 763 763 764 765 766 766 767 768 769 769 770 771 772 773 773 774 775 776 777 778 779 780 781 781 782 782 783 784 785 786 787 788 789 790 791 792 793 794 794 795 795 796 796 797 798 798 799 799 800 800 800 801 801 801 802 802 802 803 803 803 804 804 804 804 804 804 804 804 805 805 805 805 806 806 806 806 807 807 807 808
760 760 761 761 762 762 763 764 764 765 766 767 767 768 769 769 770 771 771 772 773 774 775 776 776 777 779 779 780 781 781 781 782 783 784 786 786 787 788 789 790 791 792 793 794 795 795 796 796 796 797 798 798 799 799 799 800 800 801 801 801 801 802 802 802 802 803 803 803 803 803 803 803 803 803 804 804 804 804 805 805 805 806 806 806 807
760 760 761 761 762 762 763 764 765 765 766 767 767 768 769 769 770 771 771 772 773 774 774 775 776 777 778 778 779 780 780 781 782 783 784 785 786 787 788 789 790 791 791 792 793 794 795 795 796 796 796 797 798 798 798 798 799 799 800 800 800 801 801 801 801 801 802 802 802 802 802 802 802 802 802 802 803 803 803 803 804 804 804 805 805 805
760 760 761 761 762 762 763 764 765 765 766 766 767 768 769 769 770 771 771 772 773 773 774 775 776 776 777 778 779 779 780 781 781 782 783 784 786 786 787 788 789 790 791 791 792 793 794 794 795 796 796 796 796 797 797 797 798 799 799 799 799 800 800 800 800 801 801 801 801 801 801 801 801 801 801 801 801 802 802 802 802 803 803 803 803 804
759 760 760 761 761 762 763 764 764 765 766 766 767 768 769 769 770 771 771 772 773 774 774 775 776 776 777 778 778 779 780 781 781 782 783 784 785 786 787 787 788 789 790 791 791 792 793 793 794 795 795 795 795 796 796 796 797 798 798 798 798 798 799 799 799 799 799 800 800 800 800 800 800 800 800 800 800 801 801 801 801 801 801 802 802 802
759 759 760 760 761 762 762 763 764 764 765 766 766 767 768 769 770 771 771 772 773 774 774 775 776 776 777 778 778 779 780 781 781 782 783 784 785 786 786 787 788 788 789 790 791 791 792 792 793 793 793 794 794 795 795 795 796 796 797 797 797 797 797 797 798 798 798 798 798 798 798 799 799 799 799 799 799 799 800 800 800 800 801 801 801 801
758 759 759 760 761 761 762 762 763 764 764 766 766 767 768 769 770 771 771 772 773 774 774 775 776 776 777 778 778 779 780 781 781 782 783 784 784 785 786 786 787 788 788 789 790 791 791 792 792 792 792 793 793 794 794 795 795 796 796 796 797 796 796 796 796 796 796 797 797 797 797 797 797 797 797 798 798 798 799 799 799 799 800 800 800 801
757 758 759 759 760 761 761 761 762 763 764 765 766 767 768 769 770 771 771 772 773 774 775 775 776 776 777 778 779 779 780 781 781 782 783 783 784 785 785 786 787 787 788 789 789 790 791 791 791 791 792 792 792 793 793 794 794 794 795 795 796 796 796 795 795 795 795 795 796 796 796 796 796 796 796 797 797 797 797 798 798 798 798 799 799 799
756 757 758 759 759 760 760 761 762 763 764 765 766 767 767 768 769 770 771 772 773 774 774 775 776 777 777 778 779 780 780 781 781 782 783 783 784 784 785 786 786 787 787 788 789 789 790 790 791 791 791 791 792 792 793 793 793 793 794 794 795 795 795 795 794 794 794 794 794 795 795 795 795 796 796 796 796 796 796 796 797 797 797 798 798 798
755 756 757 757 758 759 760 761 762 763 764 765 766 766 767 768 769 770 771 772 772 773 774 775 776 777 778 778 779 780 780 781 781 782 782 783 783 784 785 785 786 786 787 788 788 789 789 790 790 791 791 791 791 792 792 792 792 793 793 793 793 794 794 794 793 793 793 793 794 794 794 794 795 795 795 795 795 796 796 796 796 796 796 796 797 797
754 755 756 756 757 758 760 761 762 762 763 764 765 766 766 767 769 770 771 771 772 773 774 775 776 777 778 778 779 779 780 780 781 781 782 782 783 783 784 785 785 786 786 787 788 788 789 789 789 790 790 790 791 791 791 791 792 792 792 792 792 793 793 793 793 792 792 792 793 793 793 793 794 794 794 794 794 795 795 795 795 795 795 796 796 796
753 754 755 756 757 758 759 760 761 762 763 764 765 765 766 767 768 769 770 771 772 773 774 775 776 777 777 778 779 779 779 780 780 781 781 782 782 783 783 784 784 785 786 786 787 788 788 788 789 789 789 789 790 790 790 791 791 791 791 791 791 791 791 792 792 792 792 792 792 792 792 792 792 793 793 793 794 794 794 794 794 794 794 794 795 795
752 753 754 755 756 758 759 760 761 762 763 764 764 765 766 766 767 769 770 771 771 772 773 774 775 776 777 777 778 778 779 779 780 780 781 781 781 782 782 783 784 784 785 786 786 787 787 788 788 788 788 788 789 789 789 790 790 790 790 790 790 791 791 791 791 791 791 791 791 791 791 791 791 792 792 792 793 793 793 793 793 793 793 793 793 794
751 752 753 754 756 757 758 759 760 761 762 763 764 764 765 766 767 768 769 770 771 772 773 774 775 776 776 776 777 778 778 779 779 780 780 780 781 781 782 782 783 783 784 784 785 786 786 786 787 787 787 788 788 788 788 788 789 789 789 789 790 790 790 790 790 790 790 790 791 791 791 790 791 791 791 791 792 792 792 792 792 792 792 792 792 792
750 751 752 754 755 756 757 759 760 761 762 762 763 764 765 766 766 767 769 770 770 771 772 773 774 775 775 776 776 777 777 778 778 779 779 779 780 781 781 781 782 783 783 784 784 784 785 785 785 786 786 787 787 787 787 788 788 788 788 788 789 789 789 789 789 789 789 789 789 789 789 790 790 791 791 791 791 791 791 791 791 791 791 791 791 791
749 750 751 753 754 755 756 758 759 760 761 762 763 763 764 765 766 767 768 769 770 771 772 772 773 774 775 775 776 776 776 777 778 778 778 779 779 780 780 781 781 782 783 783 783 784 784 784 784 784 785 785 786 786 786 787 787 787 787 787 788 788 788 788 788 788 788 788 788 788 788 789 789 790 790 790 790 790 790 790 790 790 790 790 790 790
748 749 751 752 753 754 755 756 758 759 760 761 762 763 764 765 766 766 767 768 769 770 771 772 772 773 774 774 775 775 776 776 777 777 778 778 778 779 780 780 781 782 782 783 783 783 784 784 783 783 783 783 784 785 785 786 786 786 786 786 787 787 787 787 788 788 787 787 787 787 787 788 788 788 789 789 789 790 790 790 790 789 789 789 789 789
747 748 750 751 752 753 754 756 757 758 759 760 761 762 763 764 765 766 767 768 769 770 770 771 771 772 773 773 774 774 775 775 776 776 777 777 777 778 779 780 780 781 782 782 783 783 783 783 783 782 782 782 782 783 784 785 785 786 786 786 786 786 786 786 787 787 787 787 787 786 786 787 787 787 788 788 789 789 789 789 789 789 789 788 788 788